Miscellaneous Local Product
Issued by NWS North Platte, NE

Home | Current Version | Previous Version | Graphics & Text | Print | Product List | Glossary On
Versions: 1 2 3 4 5 6 7 8 9 10 11 12 13 14 15 16 17 18 19 20 21 22 23 24 25 26 27 28 29 30 31 32 33 34 35 36 37 38 39 40 41 42 43 44 45 46 47 48 49 50
000
AXUS43 KLBF 200910
MISLBF


WESTERN AND NORTH CENTRAL NEBRASKA HOURLY WEATHER ROUNDUP
NATIONAL WEATHER SERVICE NORTH PLATTE NE
400 AM CDT SUN AUG 20 2017

NOTE: "FAIR" INDICATES FEW OR NO CLOUDS BELOW 12,000 FEET WITH NO
SIGNIFICANT WEATHER AND/OR OBSTRUCTIONS TO VISIBILITY.

NOTE: STATIONS NOT REPORTING VARIABLES SUCH AS SKY/WEATHER OR
PRESSURE ARE PROVIDED BY RAWS AND APRS NETWORKS AND ARE NOT UNDER
NATIONAL WEATHER SERVICE QUALITY CONTROL.

...OBSERVATIONS IN AND NEAR THE EASTERN PANHANDLE OF NEBRASKA...

CITY           SKY/WX    TMP DP  RH WIND       PRES   REMARKS
PINE RIDGE     CLEAR     60  48  64 E5        29.96R
GORDON         FAIR      61  47  59 N10       29.95R
CHADRON        CLEAR     54  46  74 SW3       29.96S
ALLIANCE       CLEAR     57  48  72 NW3       29.95S
SIDNEY         CLEAR     55  51  86 SW8       29.98F
$$

...OBSERVATIONS IN NORTHERN NEBRASKA AND FAR SOUTHERN SOUTH DAKOTA...

CITY           SKY/WX    TMP DP  RH WIND       PRES   REMARKS
WINNER         FAIR      66  62  87 S6        29.88R
VALENTINE      CLEAR     64  57  78 NW5       29.88R
THEDFORD       CLEAR     59  56  91 CALM      29.89S
AINSWORTH      CLEAR     65  60  86 S6        29.87R
O`NEILL        CLEAR     65  60  84 SE5       29.88R
BROKEN BOW     CLEAR     68  62  81 S7        29.87S
VALENTINE NWR    N/A     62  58  86 CALM        N/A
HALSEY           N/A     65  59  81 CALM        N/A
BUTTE            N/A     67  62  84 SE7         N/A
CHAMBERS         N/A     63  58  83 CALM        N/A
EWING            N/A     64  58  81 CALM        N/A
$$

...OBSERVATIONS IN SOUTHWEST NEBRASKA AND FAR NORTHEAST COLORADO...

CITY           SKY/WX    TMP DP  RH WIND       PRES   REMARKS
HOLYOKE        FAIR      63  55  77 NW6       29.92S
IMPERIAL       CLEAR     68  57  68 NW7       29.88S
OGALLALA       CLEAR     61  59  91 W3        29.90R
NORTH PLATTE   PTCLDY    65  62  90 E8        29.86S
MCCOOK         CLEAR     71  60  68 W12       29.86S
LEXINGTON      CLEAR     67  62  82 SE9       29.88S
STAPLETON        N/A     61  58  88 CALM        N/A
GOTHENBURG       N/A     67  60  79 E3          N/A
CALLAWAY         N/A     66  64  92 SE8         N/A
$$

...OBSERVATIONS IN CENTRAL LINCOLN COUNTY AREA...

CITY           SKY/WX    TMP DP  RH WIND       PRES   REMARKS
N.P. AIRPORT   PTCLDY    65  62  90 E8        29.86S
N.P. DOWNTOWN    N/A     68  63  84 CALM        N/A
N.P. SOUTHEAST   N/A     66  62  87 CALM        N/A
N.P. HILLCREST   N/A     67  62  85 E8          N/A
$$

...SOME OBSERVATIONS FROM AROUND THE REGION...

CITY           SKY/WX    TMP DP  RH WIND       PRES   REMARKS
DENVER         PTCLDY    68  40  35 SW12      30.07S
LIMON          CLOUDY    52  50  93 NW5       30.07S
ASPEN          CLOUDY    52  34  50 SW8       30.30F
LARAMIE        CLOUDY    48  30  49 SE8       30.21S
CASPER         CLEAR     51  36  56 W10       30.09S
CHEYENNE       CLEAR     60  30  32 W7        30.12S
SCOTTSBLUFF    CLEAR     58  47  66 NW7       29.95S
GRAND ISLAND   CLOUDY    67  63  87 S10       29.88S
OMAHA          TSTM      70  65  84 SW6       29.94F
SIOUX FALLS    CLOUDY    72  63  73 S9        29.85R
PIERRE         CLOUDY    70  56  61 NE16      29.91R
RAPID CITY     CLEAR     59  46  62 NW8       29.99S
BISMARCK       MOCLDY    63  47  55 NW6       29.96R
KANSAS CITY    CLOUDY    78  74  87 S10       29.90F
HILL CITY      CLEAR     71  64  78 W6        29.89S
WICHITA        PTCLDY    76  70  82 S3        29.92R
DODGE CITY     CLEAR     73  65  75 SW10      29.95S
OKLAHOMA CITY  PTCLDY    72  68  87 SE6       29.95F
DALLAS         PTCLDY    84  71  65 S10       29.93F
AMARILLO       CLOUDY    69  64  84 S12       30.07S
$$




USA.gov is the U.S. government's official web portal to all federal, state and local government web resources and services.